1494612000.86,43033,14.63,73178.0,0.65,-0.03,-0.07,0,*4D
1494612002.05,43034,14.63,73176.5,0.63,-0.11,-0.07,0,*7F
1494612003.23,43035,14.63,73176.3,0.63,-0.07,-0.07,0,*49
1494612004.4,43036,14.63,73178.8,0.65,-0.19,-0.07,0,*73
1494612005.62,43037,14.63,73176.0,0.63,-0.23,-0.15,0,*4E
1494612006.82,43038,14.63,73176.0,0.63,-0.15,-0.15,0,*44
1494612008.0,43039,14.63,73178.3,0.65,-0.11,-0.11,0,*43
1494612009.16,43040,14.63,73178.5,0.65,-0.11,-0.07,0,*7A
1494612010.37,43041,14.63,73178.3,0.63,-0.11,-0.11,0,*4A
1494612011.56,43042,14.63,73178.3,0.63,-0.07,-0.11,0,*7E
1494612012.76,43043,14.63,73176.8,0.63,-0.11,-0.11,0,*48
1494612013.92,43044,14.63,73176.3,0.65,-0.07,-0.07,0,*49
1494612015.11,43045,14.63,73176.8,0.63,-0.11,-0.07,0,*79
1494612016.27,43046,14.63,73178.0,0.65,-0.07,-0.07,0,*4B
1494612017.46,43047,14.56,73174.8,0.63,-0.07,-0.07,0,*4C
1494612018.65,43048,14.63,73182.3,0.63,-0.11,-0.07,0,*74
1494612019.84,43049,14.63,73176.5,0.63,-0.11,0.01,0,*5E
1494612021.02,43050,14.63,73176.8,0.63,-0.07,-0.07,0,*4A
1494612022.18,43051,14.56,73176.3,0.65,-0.07,-0.03,0,*49
1494612023.37,43052,14.63,73176.3,0.63,-0.11,-0.07,0,*7F
1494612024.53,43053,14.63,73178.3,0.65,-0.07,0.09,0,*6C
1494612025.68,43054,14.63,73178.5,0.65,-0.03,0.05,0,*63
1494612026.84,43055,14.63,73178.3,0.65,-0.03,0.05,0,*62
1494612028.0,43056,14.63,73178.5,0.65,-0.03,0.05,0,*61
1494612029.18,43057,14.56,73176.3,0.63,-0.07,0.01,0,*66
1494612030.35,43058,14.63,73176.3,0.63,-0.07,0.01,0,*69
1494612031.51,43059,14.63,73182.3,0.65,-0.07,-0.03,0,*41
1494612032.67,43060,14.63,73178.3,0.65,-0.03,-0.03,0,*4F
1494612033.83,43061,14.63,73180.0,0.65,-0.03,-0.03,0,*4E
1494612035.03,43062,14.63,73176.0,0.63,-0.11,-0.11,0,*4B
1494612036.19,43063,14.63,73176.3,0.65,-0.07,-0.03,0,*48
1494612037.35,43064,14.63,73178.8,0.65,-0.07,-0.03,0,*4F
1494612038.51,43065,14.63,73178.5,0.65,-0.03,-0.07,0,*4E
1494612039.7,43066,14.56,73176.8,0.63,-0.07,-0.11,0,*78
1494612040.86,43067,14.63,73180.8,0.65,-0.07,-0.03,0,*4C
1494612042.02,43068,14.63,73176.0,0.65,-0.03,-0.03,0,*47
1494612043.18,43069,14.56,73178.0,0.65,-0.03,-0.07,0,*42
1494612044.33,43070,14.63,73178.5,0.65,-0.07,-0.07,0,*4E
1494612045.49,43071,14.63,73178.8,0.65,-0.07,-0.03,0,*4B
1494612046.68,43072,14.63,73178.5,0.63,-0.11,-0.07,0,*7D
1494612047.84,43073,14.63,73178.5,0.65,-0.07,-0.03,0,*49
1494612049.05,43074,14.56,73178.0,0.63,-0.11,-0.11,0,*4C
1494612050.2,43075,14.63,73178.3,0.65,-0.07,-0.03,0,*4F
1494612051.4,43076,14.63,73176.3,0.63,-0.07,-0.11,0,*79
1494612052.55,43077,14.56,73176.0,0.65,-0.03,-0.03,0,*49
1494612053.74,43078,14.56,73176.0,0.63,-0.07,-0.07,0,*40
1494612054.9,43079,14.63,73176.3,0.65,-0.03,-0.03,0,*47
1494612056.05,43080,14.63,73178.8,0.65,0.05,0.05,0,*41
1494612057.2,43081,14.63,73180.5,0.65,0.05,-0.03,0,*6B
1494612058.38,43082,14.63,73178.0,0.63,0.01,-0.07,0,*6E
1494612059.57,43083,14.56,73178.5,0.63,-0.07,-0.11,0,*73
1494612060.73,43084,14.63,73178.3,0.65,-0.03,-0.03,0,*45
1494612061.89,43085,14.56,73176.8,0.65,0.05,0.05,0,*44
1494612063.04,43086,14.56,73176.8,0.65,0.05,0.05,0,*47
1494612064.19,43087,14.56,73172.5,0.65,0.05,0.05,0,*46
1494612065.34,43088,14.63,73178.5,0.65,0.05,0.05,0,*49
1494612066.52,43089,14.63,73182.8,0.67,0.05,0.05,0,*4A
1494612067.71,43090,14.63,73176.5,0.67,0.05,0.05,0,*42
1494612068.86,43091,14.63,73178.0,0.65,0.09,-0.03,0,*66
1494612070.01,43092,14.63,73178.5,0.65,0.05,-0.03,0,*69
1494612071.16,43093,14.63,73182.3,0.65,0.05,0.05,0,*43
1494612072.35,43094,14.63,73178.5,0.67,-0.03,0.09,0,*61
1494612073.53,43095,14.63,73176.8,0.67,0.09,0.05,0,*4B
1494612074.71,43096,14.63,73176.8,0.67,0.09,0.05,0,*48
1494612075.9,43097,14.63,73176.3,0.67,0.09,0.09,0,*45
1494612077.08,43098,14.56,73176.8,0.67,0.09,0.09,0,*4A
1494612078.26,43099,14.56,73178.8,0.67,0.05,0.09,0,*47
1494612079.41,43100,14.56,73174.8,0.65,0.09,0.09,0,*48
1494612080.56,43101,14.56,73178.3,0.65,0.05,0.05,0,*49
1494612081.74,43102,14.56,73174.3,0.67,0.09,0.05,0,*44
1494612082.89,43103,14.63,73178.0,0.65,0.09,0.05,0,*47
1494612084.09,43104,14.63,73176.5,0.67,0.05,0.17,0,*7D
1494612085.28,43105,14.63,73182.0,0.67,0.09,0.09,0,*4F
1494612086.46,43106,14.56,73176.8,0.67,0.09,0.09,0,*4C
1494612087.64,43107,14.63,73176.0,0.67,0.05,0.05,0,*4D
1494612088.82,43108,14.56,73178.0,0.67,0.09,0.05,0,*4E
1494612090.0,43109,14.63,73176.8,0.67,0.05,0.09,0,*4F
1494612091.18,43110,14.56,73176.3,0.67,0.09,0.05,0,*47
1494612092.36,43111,14.63,73182.3,0.67,0.05,0.09,0,*46
1494612093.54,43112,14.56,73176.5,0.67,0.09,0.09,0,*49
1494612094.72,43113,14.63,73180.5,0.67,0.09,0.09,0,*48
1494612095.88,43114,14.63,73176.3,0.69,0.09,0.09,0,*41
1494612097.06,43115,14.63,73180.5,0.67,0.05,0.05,0,*4E
1494612098.24,43116,14.56,73176.8,0.67,0.09,0.09,0,*4D
1494612099.42,43117,14.63,73180.3,0.67,0.09,0.09,0,*4C
1494612100.6,43118,14.63,73180.0,0.67,0.05,0.09,0,*4F
1494612101.78,43119,14.56,73176.8,0.67,0.05,0.05,0,*42
1494612102.94,43120,14.63,73178.3,0.69,0.09,0.09,0,*46
1494612104.12,43121,14.63,73180.5,0.67,-0.03,0.05,0,*62
1494612105.31,43122,14.56,73174.5,0.67,-0.03,0.05,0,*61
1494612106.49,43123,14.63,73178.5,0.67,0.05,0.09,0,*47
1494612107.67,43124,14.56,73178.8,0.67,0.05,0.05,0,*4C
1494612108.85,43125,14.56,73176.3,0.67,0.05,0.09,0,*41
1494612110.01,43126,14.56,73178.3,0.69,0.09,0.09,0,*40
1494612111.19,43127,14.56,73178.5,0.67,0.09,0.09,0,*4F
1494612112.34,43128,14.63,73178.3,0.69,0.09,0.05,0,*42
1494612113.5,43129,14.63,73176.3,0.69,0.09,0.05,0,*43
1494612114.68,43130,14.56,73178.0,0.67,0.05,0.09,0,*45
1494612115.86,43131,14.63,73178.8,0.67,0.09,0.09,0,*48
1494612117.06,43132,14.56,73176.5,0.69,0.13,0.13,0,*45
1494612118.26,43133,14.56,73176.5,0.69,0.13,0.13,0,*44
1494612119.44,43134,14.56,73174.5,0.67,0.09,0.09,0,*4D
1494612120.62,43135,14.56,73176.5,0.67,0.09,0.09,0,*4C
1494612121.84,43136,14.56,73176.3,0.67,0.17,0.17,0,*4F
1494612123.04,43137,14.56,73176.3,0.69,0.25,0.13,0,*45
1494612124.22,43138,14.56,73174.0,0.67,0.09,0.09,0,*41
1494612125.43,43139,14.56,73178.8,0.67,0.17,0.09,0,*7F
1494612126.63,43140,14.56,73178.0,0.69,0.21,0.21,0,*40
1494612127.86,43141,14.56,73176.5,0.67,0.17,0.21,0,*4A
1494612129.1,43142,14.56,73176.8,0.67,0.21,0.21,0,*4C
1494612130.24,43143,14.56,73178.5,0.69,0.01,0.01,0,*43
1494612131.42,43144,14.56,73176.8,0.69,-0.15,-0.11,0,*40
1494612132.59,43145,14.56,73176.8,0.69,-0.07,-0.15,0,*76
1494612133.76,43146,14.56,73178.0,0.69,-0.19,-0.19,0,*46
1494612134.93,43147,14.56,73174.8,0.69,-0.07,-0.15,0,*74
1494612136.17,43148,14.63,73176.5,0.67,-0.23,-0.23,0,*46
1494612137.39,43149,14.56,73176.0,0.67,-0.19,-0.23,0,*4E
1494612138.6,43150,14.56,73176.8,0.67,-0.11,-0.19,0,*47
1494612139.8,43151,14.56,73178.0,0.67,-0.19,-0.19,0,*4E
1494612140.98,43152,14.56,73178.3,0.69,-0.19,-0.11,0,*4B
1494612142.18,43153,14.56,73178.0,0.67,-0.19,-0.11,0,*44
1494612143.39,43154,14.56,73176.0,0.67,-0.11,-0.11,0,*4B
1494612144.59,43155,14.56,73178.8,0.67,-0.11,-0.11,0,*4A
1494612145.79,43156,14.56,73176.5,0.67,-0.07,-0.11,0,*7E
1494612146.97,43157,14.56,73178.5,0.67,-0.07,-0.07,0,*48
1494612148.12,43158,14.63,73178.3,0.69,0.01,-0.03,0,*66
1494612149.31,43159,14.56,73178.5,0.67,-0.07,-0.07,0,*46
1494612150.5,43160,14.56,73178.8,0.67,-0.07,-0.07,0,*4C
1494612151.68,43161,14.56,73176.5,0.67,-0.07,-0.07,0,*4D
1494612152.87,43162,14.56,73174.8,0.67,-0.07,-0.03,0,*4A
1494612154.06,43163,14.63,73176.8,0.67,-0.03,-0.03,0,*4F
1494612155.25,43164,14.56,73176.0,0.67,-0.07,-0.07,0,*48
1494612156.44,43165,14.56,73178.8,0.67,-0.03,-0.03,0,*49
1494612157.62,43166,14.56,73178.3,0.67,-0.07,-0.07,0,*4A
1494612158.78,43167,14.56,73178.0,0.69,-0.03,0.01,0,*6A
1494612159.97,43168,14.56,73176.0,0.67,-0.03,-0.07,0,*40
1494612161.17,43169,14.56,73176.8,0.67,-0.11,-0.11,0,*45
1494612162.36,43170,14.56,73174.3,0.67,-0.07,-0.07,0,*4D
1494612163.55,43171,14.56,73176.5,0.67,-0.03,-0.03,0,*4C
1494612164.74,43172,14.56,73178.8,0.67,-0.03,-0.03,0,*4F
1494612165.93,43173,14.56,73178.8,0.67,-0.03,-0.07,0,*4A
1494612167.12,43174,14.63,73178.0,0.67,-0.03,-0.03,0,*49
1494612168.3,43175,14.63,73178.8,0.67,-0.03,-0.07,0,*4C
1494612169.47,43176,14.56,73174.3,0.69,-0.03,-0.03,0,*45
1494612170.63,43177,14.56,73176.0,0.69,-0.07,-0.03,0,*40
1494612171.77,43178,14.56,73176.3,0.69,0.01,0.01,0,*4B
1494612172.96,43179,14.56,73178.5,0.67,0.05,-0.07,0,*6B
1494612174.11,43180,14.56,73176.0,0.69,0.09,0.09,0,*4C
1494612175.29,43181,14.56,73176.3,0.67,0.05,0.05,0,*43
1494612176.47,43182,14.63,73178.3,0.67,0.05,0.05,0,*40
1494612177.65,43183,14.63,73182.0,0.69,0.09,0.13,0,*74
1494612178.8,43184,14.63,73178.8,0.69,0.09,0.09,0,*48
1494612179.96,43185,14.56,73178.0,0.69,0.09,0.09,0,*49
1494612181.11,43186,14.56,73178.8,0.69,0.09,0.01,0,*42
1494612182.29,43187,14.56,73176.0,0.67,0.05,0.09,0,*49
1494612183.47,43188,14.56,73176.8,0.67,0.05,0.05,0,*4A
1494612184.65,43189,14.56,73178.5,0.67,0.09,0.05,0,*47
1494612185.83,43190,14.56,73180.0,0.67,0.05,0.05,0,*43
1494612187.01,43191,14.56,73176.0,0.69,0.13,0.09,0,*77
1494612188.19,43192,14.56,73178.5,0.67,0.09,0.05,0,*4D
1494612189.34,43193,14.56,73176.0,0.69,0.09,0.09,0,*4E
1494612190.52,43194,14.56,73178.0,0.69,0.13,0.09,0,*72
1494612191.7,43195,14.56,73176.8,0.67,0.05,0.05,0,*46
1494612192.88,43196,14.56,73176.8,0.67,0.05,0.05,0,*45
1494612194.07,43197,14.56,73174.8,0.67,-0.03,0.05,0,*6F
1494612195.25,43198,14.56,73176.5,0.69,0.13,0.09,0,*7E
1494612196.42,43199,14.63,73180.0,0.69,0.09,0.13,0,*7F
1494612197.6,43200,14.56,73176.0,0.67,0.05,0.09,0,*45
1494612198.76,43201,14.56,73176.5,0.69,0.09,0.09,0,*46
1494612199.93,43202,14.56,73176.0,0.69,0.13,0.01,0,*76
1494612201.1,43203,14.56,73176.8,0.69,0.13,0.09,0,*7F
1494612202.29,43204,14.56,73176.8,0.67,0.05,0.05,0,*4D
1494612203.47,43205,14.56,73176.5,0.67,0.09,0.09,0,*4C
1494612204.62,43206,14.56,73172.3,0.69,0.09,0.09,0,*41
1494612205.8,43207,14.56,73176.0,0.67,0.09,0.05,0,*42
1494612206.96,43208,14.56,73178.8,0.69,-0.03,0.05,0,*64
1494612208.17,43209,14.63,73178.8,0.67,0.13,0.05,0,*77
1494612209.35,43210,14.56,73176.8,0.67,0.09,0.05,0,*44
1494612210.5,43211,14.56,73174.0,0.69,0.05,0.09,0,*4B
1494612211.68,43212,14.56,73176.8,0.67,0.09,0.09,0,*4A
1494612212.86,43213,14.56,73178.3,0.67,0.05,0.05,0,*4B
1494612214.04,43214,14.56,73176.8,0.67,0.05,0.09,0,*40
1494612215.23,43215,14.56,73178.8,0.67,0.05,0.05,0,*4D
1494612216.41,43216,14.56,73174.3,0.67,0.09,0.09,0,*4E
1494612217.59,43217,14.56,73176.8,0.67,0.09,0.09,0,*4F
1494612218.79,43218,14.56,73176.3,0.69,0.13,0.21,0,*4F
1494612219.97,43219,14.56,73176.3,0.67,0.09,0.09,0,*41
1494612221.13,43220,14.56,73178.8,0.69,0.09,0.09,0,*45
1494612222.31,43221,14.56,73180.5,0.67,0.05,0.09,0,*46
1494612223.48,43222,14.56,73180.0,0.69,0.09,0.13,0,*7C
1494612224.65,43223,14.56,73178.0,0.69,0.01,0.13,0,*75
1494612225.86,43224,14.56,73178.8,0.67,0.05,0.17,0,*7C
1494612227.06,43225,14.56,73176.3,0.69,0.13,0.25,0,*45
1494612228.23,43226,14.56,73178.3,0.73,0.05,0.17,0,*7B
1494612229.38,43227,14.56,73180.5,0.69,0.09,0.09,0,*42
1494612230.54,43228,14.56,73178.8,0.69,0.09,0.09,0,*4D
1494612231.72,43229,14.56,73178.5,0.67,0.05,0.05,0,*42
1494612232.9,43230,14.56,73176.0,0.67,0.05,0.05,0,*4A
1494612234.05,43231,14.56,73176.3,0.69,0.09,0.09,0,*45
1494612235.25,43232,14.56,73176.8,0.69,0.13,0.13,0,*46
1494612236.43,43233,14.56,73178.5,0.67,0.09,0.09,0,*49
1494612237.59,43234,14.56,73178.3,0.69,-0.03,0.01,0,*6F
1494612238.77,43235,14.56,73178.0,0.67,-0.07,-0.03,0,*4B
1494612239.96,43236,14.56,73174.3,0.67,-0.03,-0.07,0,*48
1494612241.15,43237,14.56,73178.8,0.67,-0.03,-0.03,0,*4D
1494612242.34,43238,14.56,73178.0,0.67,-0.03,-0.07,0,*46
1494612243.49,43239,14.56,73178.5,0.69,0.01,-0.03,0,*62
1494612244.68,43240,14.56,73176.3,0.67,-0.03,-0.03,0,*4D
1494612245.84,43241,14.56,73176.0,0.69,-0.03,0.01,0,*6D
1494612247.03,43242,14.56,73176.3,0.67,-0.03,-0.03,0,*4F
1494612248.17,43243,14.56,73176.5,0.69,0.01,0.01,0,*40
1494612249.33,43244,14.56,73176.8,0.69,-0.07,-0.03,0,*43
1494612250.52,43245,14.56,73178.5,0.67,-0.03,-0.03,0,*48
1494612251.67,43246,14.56,73176.8,0.69,0.01,0.09,0,*4D
1494612252.86,43247,14.56,73176.5,0.67,-0.03,-0.03,0,*4A
1494612254.04,43248,14.56,73176.3,0.67,-0.03,-0.03,0,*45
1494612255.23,43249,14.56,73178.3,0.67,-0.03,-0.03,0,*44
1494612256.39,43250,14.56,73176.8,0.69,-0.03,-0.03,0,*42
1494612257.58,43251,14.56,73178.5,0.67,-0.03,-0.03,0,*4D
1494612258.73,43252,14.56,73178.0,0.69,0.09,0.01,0,*48
1494612259.88,43253,14.56,73176.3,0.69,0.01,0.01,0,*41
1494612261.07,43254,14.56,73178.3,0.67,-0.03,-0.03,0,*48
1494612262.21,43255,14.56,73176.0,0.69,0.01,0.01,0,*47
1494612263.36,43256,14.56,73180.0,0.69,0.01,0.01,0,*44
1494612264.5,43257,14.56,73178.8,0.69,0.01,0.09,0,*4D
1494612265.66,43258,14.56,73178.3,0.69,0.09,0.09,0,*4A
1494612266.81,43259,14.56,73174.8,0.69,0.09,0.09,0,*4B
1494612267.99,43260,14.56,73176.0,0.67,0.05,0.05,0,*4F
1494612269.17,43261,14.56,73178.8,0.67,0.05,0.05,0,*4E
1494612270.36,43262,14.56,73176.3,0.67,-0.07,-0.07,0,*4D
1494612271.52,43263,14.56,73178.3,0.69,-0.03,0.01,0,*6D
1494612272.68,43264,14.56,73176.5,0.69,-0.03,-0.03,0,*45
1494612273.87,43265,14.56,73178.8,0.67,-0.07,-0.07,0,*4A
1494612275.05,43266,14.56,73176.8,0.67,-0.07,-0.07,0,*49
1494612276.24,43267,14.56,73178.5,0.67,-0.07,-0.03,0,*4C
1494612277.43,43268,14.56,73174.0,0.67,-0.07,-0.07,0,*47
1494612278.62,43269,14.56,73176.8,0.67,-0.07,-0.07,0,*46
1494612279.8,43270,14.56,73174.5,0.67,-0.07,-0.03,0,*4A
1494612280.96,43271,14.56,73174.8,0.69,-0.07,-0.07,0,*41
1494612282.17,43272,14.56,73178.5,0.67,-0.11,-0.11,0,*4C
1494612283.33,43273,14.56,73172.0,0.69,-0.07,-0.07,0,*43
1494612284.52,43274,14.56,73176.8,0.67,-0.11,-0.07,0,*7D
1494612285.72,43275,14.56,73174.0,0.67,-0.11,-0.07,0,*7C
1494612286.9,43276,14.56,73178.3,0.67,-0.07,-0.07,0,*48
1494612288.07,43277,14.56,73176.5,0.69,-0.03,-0.03,0,*47
1494612289.25,43278,14.56,73176.0,0.67,-0.07,-0.03,0,*42
1494612290.44,43279,14.56,73176.8,0.67,-0.03,-0.07,0,*43
1494612291.59,43280,14.56,73176.3,0.69,0.01,0.09,0,*47
1494612292.74,43281,14.56,73176.3,0.69,0.01,0.09,0,*46
1494612293.88,43282,14.56,73176.5,0.69,0.01,0.01,0,*4D
1494612295.03,43283,14.56,73178.0,0.69,0.01,0.09,0,*44
1494612296.21,43284,14.56,73180.3,0.67,0.05,-0.03,0,*6E
1494612297.39,43285,14.56,73178.5,0.67,0.09,0.05,0,*48
1494612298.55,43286,14.56,73178.3,0.69,0.09,0.09,0,*49
1494612299.73,43287,14.56,73178.0,0.67,0.09,0.05,0,*4A
1494612300.93,43288,14.56,73174.5,0.69,0.13,0.13,0,*47
1494612302.08,43289,14.56,73178.8,0.69,0.09,0.01,0,*4E
1494612303.23,43290,14.56,73178.5,0.69,0.01,-0.03,0,*61
1494612304.39,43291,14.56,73176.3,0.69,-0.03,0.01,0,*60
1494612305.54,43292,14.56,73178.0,0.69,0.09,0.09,0,*4C
1494612306.69,43293,14.56,73176.3,0.69,0.09,0.09,0,*4D
1494612307.84,43294,14.56,73178.0,0.69,0.01,0.09,0,*42
1494612308.99,43295,14.56,73174.5,0.69,0.01,0.09,0,*43
1494612310.17,43296,14.56,73178.0,0.67,-0.03,0.05,0,*6D
1494612311.33,43297,14.56,73178.8,0.69,0.09,0.09,0,*49
1494612312.51,43298,14.56,73176.5,0.69,0.13,0.09,0,*7D
1494612313.66,43299,14.56,73178.0,0.69,0.09,0.09,0,*47
1494612314.85,43300,14.56,73178.8,0.67,-0.03,-0.03,0,*48
1494612316.0,43301,14.56,73178.8,0.69,0.01,0.09,0,*4F
1494612317.14,43302,14.56,73178.3,0.69,0.01,0.09,0,*4C
1494612318.32,43303,14.56,73178.0,0.69,0.13,0.09,0,*7E
1494612319.5,43304,14.56,73180.0,0.69,0.13,0.09,0,*79
1494612320.65,43305,14.56,73176.8,0.69,0.09,0.09,0,*43
1494612321.8,43306,14.56,73180.8,0.69,0.09,0.09,0,*40
1494612322.98,43307,14.56,73176.0,0.69,0.13,0.09,0,*7A
1494612324.18,43308,14.56,73174.8,0.69,0.13,0.13,0,*4E
1494612325.35,43309,14.56,73172.5,0.69,0.09,0.17,0,*70
1494612326.55,43310,14.56,73178.8,0.69,0.13,0.13,0,*47
1494612327.75,43311,14.56,73178.8,0.69,0.13,0.13,0,*46
1494612328.95,43312,14.56,73176.3,0.69,0.21,0.13,0,*44
1494612330.15,43313,14.56,73178.3,0.69,0.21,0.25,0,*40
1494612331.36,43314,14.56,73178.0,0.69,0.21,0.21,0,*43
1494612332.56,43315,14.56,73174.8,0.73,0.29,0.25,0,*45
1494612333.76,43316,14.56,73174.3,0.73,0.29,0.25,0,*46
1494612334.96,43317,14.56,73176.8,0.73,0.29,0.29,0,*4B
1494612336.16,43318,14.56,73174.5,0.73,0.29,0.29,0,*44
1494612337.36,43319,14.56,73178.3,0.69,0.25,0.25,0,*4E
1494612338.56,43320,14.56,73178.0,0.73,0.29,0.29,0,*4F
1494612339.76,43321,14.56,73178.8,0.73,0.29,0.29,0,*4E
1494612340.96,43322,14.56,73176.0,0.73,0.25,0.29,0,*41
1494612342.16,43323,14.56,73174.8,0.73,0.29,0.25,0,*40
1494612343.36,43324,14.56,73174.8,0.73,0.29,0.29,0,*4B
1494612344.56,43325,14.56,73176.0,0.73,0.29,0.37,0,*45
1494612345.76,43326,14.56,73176.0,0.73,0.37,0.37,0,*49
1494612346.95,43327,14.56,73174.5,0.73,0.41,0.41,0,*48
1494612348.15,43328,14.56,73180.3,0.73,0.29,0.25,0,*4B
1494612349.35,43329,14.56,73176.0,0.73,0.29,0.29,0,*46
1494612350.55,43330,14.56,73178.3,0.73,0.29,0.29,0,*4E
1494612351.75,43331,14.56,73172.0,0.73,0.29,0.25,0,*43
1494612352.95,43332,14.56,73174.8,0.73,0.17,0.29,0,*41
1494612354.15,43333,14.56,73174.8,0.77,0.33,0.33,0,*49
1494612355.35,43334,14.56,73172.8,0.73,0.29,0.29,0,*4A
1494612356.55,43335,14.56,73176.3,0.73,0.25,0.29,0,*47
1494612357.77,43336,14.56,73178.8,0.77,0.21,0.29,0,*44
1494612358.98,43337,14.56,73174.5,0.77,0.29,0.33,0,*46
1494612360.19,43338,14.56,73176.3,0.77,0.29,0.33,0,*49
1494612361.4,43339,14.56,73178.8,0.77,0.29,0.29,0,*43
1494612362.61,43340,14.56,73180.3,0.77,0.29,0.29,0,*4D
1494612363.83,43341,14.56,73176.5,0.77,0.29,0.29,0,*4C
1494612365.04,43342,14.56,73176.3,0.77,0.29,0.29,0,*4F
1494612366.24,43343,14.56,73178.3,0.73,0.25,0.17,0,*4B
1494612367.43,43344,14.56,73174.5,0.73,0.25,0.25,0,*4D
1494612368.65,43345,14.56,73176.0,0.77,0.29,0.29,0,*48
1494612369.85,43346,14.56,73178.3,0.73,0.25,0.29,0,*43
1494612371.06,43347,14.56,73178.0,0.77,0.29,0.29,0,*4A
1494612372.26,43348,14.56,73176.0,0.73,0.25,0.17,0,*40
1494612373.47,43349,14.56,73176.8,0.77,0.29,0.21,0,*4C
1494612374.69,43350,14.56,73178.8,0.77,0.21,0.29,0,*44
1494612375.89,43351,14.56,73178.3,0.73,0.21,0.25,0,*4D
1494612377.08,43352,14.56,73176.0,0.73,0.17,0.17,0,*4A
1494612378.3,43353,14.56,73174.3,0.77,0.29,0.21,0,*47
1494612379.5,43354,14.56,73174.3,0.73,0.25,0.25,0,*4C
1494612380.71,43355,14.56,73174.3,0.77,0.33,0.29,0,*42
1494612381.92,43356,14.56,73178.5,0.77,0.29,0.29,0,*4A
1494612383.12,43357,14.56,73176.3,0.73,0.21,0.25,0,*4B
1494612384.33,43358,14.56,73178.3,0.77,0.21,0.17,0,*41
1494612385.55,43359,14.56,73176.0,0.77,0.21,0.21,0,*45
1494612386.74,43360,14.56,73178.8,0.73,0.17,0.29,0,*46
1494612387.94,43361,14.56,73176.5,0.73,0.17,0.29,0,*47
1494612389.14,43362,14.56,73176.3,0.73,0.29,0.29,0,*49
1494612390.35,43363,14.56,73172.8,0.77,0.25,0.29,0,*40
1494612391.56,43364,14.56,73178.3,0.77,0.29,0.33,0,*40
1494612392.76,43365,14.56,73176.3,0.73,0.29,0.37,0,*41
1494612393.96,43366,14.56,73176.5,0.73,0.37,0.29,0,*42
1494612395.16,43367,14.56,73174.0,0.73,0.29,0.29,0,*4C
1494612396.37,43368,14.56,73174.8,0.77,0.33,0.33,0,*47
1494612397.56,43369,14.56,73174.5,0.73,0.33,0.33,0,*42
1494612398.76,43370,14.56,73176.0,0.73,0.33,0.33,0,*4A
1494612399.96,43371,14.56,73174.5,0.77,0.33,0.33,0,*4F
1494612401.17,43372,14.56,73176.5,0.77,0.33,0.33,0,*4C
1494612402.37,43373,14.56,73178.0,0.73,0.29,0.29,0,*49
1494612403.57,43374,14.56,73178.3,0.73,0.25,0.37,0,*4D
1494612404.78,43375,14.56,73172.0,0.77,0.33,0.33,0,*4B
1494612405.97,43376,14.56,73176.0,0.73,0.33,0.33,0,*4C
1494612407.18,43377,14.56,73178.3,0.77,0.29,0.33,0,*42
1494612408.39,43378,14.56,73176.3,0.77,0.33,0.33,0,*46
1494612409.59,43379,14.56,73176.8,0.77,0.33,0.33,0,*47
1494612410.8,43380,14.56,73180.0,0.77,0.29,0.29,0,*41
1494612412.02,43381,14.56,73178.5,0.77,0.29,0.33,0,*4B
1494612413.22,43382,14.56,73178.8,0.77,0.29,0.33,0,*48
1494612414.43,43383,14.56,73178.5,0.77,0.29,0.33,0,*49
1494612415.63,43384,14.56,73174.0,0.73,0.29,0.29,0,*41
1494612416.84,43385,14.56,73176.8,0.77,0.33,0.33,0,*44
1494612418.05,43386,14.56,73176.3,0.77,0.29,0.33,0,*4C
1494612419.26,43387,14.56,73176.0,0.77,0.29,0.33,0,*4D
1494612420.45,43388,14.56,73176.5,0.73,0.33,0.33,0,*4D
1494612421.66,43389,14.56,73178.3,0.77,0.33,0.33,0,*48
1494612422.87,43390,14.56,73176.5,0.77,0.29,0.33,0,*4B
1494612424.08,43391,14.56,73172.8,0.77,0.33,0.29,0,*4A
1494612425.29,43392,14.56,73176.8,0.77,0.33,0.33,0,*42
1494612426.5,43393,14.56,73174.5,0.77,0.29,0.33,0,*48
1494612427.7,43394,14.56,73174.8,0.77,0.33,0.33,0,*44
1494612428.91,43395,14.56,73172.5,0.77,0.29,0.29,0,*45
1494612430.13,43396,14.56,73178.8,0.77,0.29,0.29,0,*46
1494612431.34,43397,14.56,73178.3,0.77,0.21,0.33,0,*44
1494612432.58,43398,14.56,73174.3,0.79,0.29,0.21,0,*4E
1494612433.79,43399,14.56,73172.5,0.77,0.29,0.33,0,*42
1494612435.0,43400,14.56,73174.8,0.77,0.29,0.29,0,*4E
1494612436.21,43401,14.56,73174.3,0.77,0.29,0.33,0,*44
1494612437.42,43402,14.56,73176.8,0.77,0.33,0.33,0,*4C
1494612438.62,43403,14.56,73172.8,0.73,0.29,0.29,0,*49
1494612439.83,43404,14.56,73178.5,0.77,0.33,0.29,0,*41
1494612441.05,43405,14.56,73176.8,0.77,0.29,0.21,0,*43
1494612442.26,43406,14.56,73174.3,0.77,0.29,0.21,0,*40
1494612443.5,43407,14.56,73172.5,0.79,0.21,0.17,0,*42
1494612444.71,43408,14.56,73176.8,0.77,0.29,0.17,0,*4B
1494612445.93,43409,14.56,73176.5,0.77,0.29,0.21,0,*4F
1494612447.14,43410,14.56,73176.3,0.77,0.21,0.33,0,*4C
1494612448.35,43411,14.56,73176.5,0.77,0.21,0.29,0,*46
1494612449.56,43412,14.56,73172.5,0.77,0.29,0.33,0,*46
1494612450.78,43413,14.56,73178.5,0.77,0.29,0.29,0,*4C
1494612451.98,43414,14.56,73178.0,0.77,0.33,0.33,0,*4B
1494612453.2,43415,14.56,73178.0,0.77,0.29,0.29,0,*4A
1494612454.41,43416,14.56,73178.8,0.77,0.17,0.21,0,*4C
1494612455.65,43417,14.56,73178.8,0.79,0.17,0.21,0,*43
1494612456.86,43418,14.56,73176.5,0.77,0.21,0.29,0,*4F
1494612458.08,43419,14.56,73180.3,0.77,0.17,0.21,0,*43
1494612459.29,43420,14.56,73178.8,0.77,0.21,0.21,0,*4C
1494612460.51,43421,14.56,73178.5,0.77,0.21,0.21,0,*4D
1494612461.71,43422,14.56,73178.8,0.73,0.17,0.25,0,*4B
1494612462.92,43423,14.56,73178.0,0.77,0.29,0.29,0,*4F
1494612464.13,43424,14.56,73178.8,0.77,0.21,0.29,0,*40
1494612465.35,43425,14.56,73172.8,0.77,0.21,0.21,0,*49
1494612466.57,43426,14.56,73176.3,0.77,0.21,0.29,0,*42
1494612467.78,43427,14.56,73176.0,0.77,0.29,0.29,0,*4B
1494612468.99,43428,14.56,73182.3,0.77,0.29,0.29,0,*44
1494612470.19,43429,14.56,73174.3,0.73,0.25,0.25,0,*41
1494612471.39,43430,14.56,73172.3,0.73,0.25,0.29,0,*45
1494612472.6,43431,14.56,73176.8,0.77,0.29,0.33,0,*47
1494612473.81,43432,14.56,73174.5,0.77,0.33,0.33,0,*4F
1494612475.01,43433,14.56,73176.0,0.73,0.29,0.29,0,*4A
1494612476.21,43434,14.56,73174.3,0.77,0.33,0.33,0,*49
1494612477.42,43435,14.56,73174.8,0.77,0.33,0.33,0,*48
1494612478.63,43436,14.56,73174.0,0.77,0.33,0.29,0,*40
1494612479.84,43437,14.56,73174.3,0.77,0.29,0.33,0,*41
1494612481.05,43438,14.56,73174.3,0.77,0.33,0.33,0,*45
1494612482.25,43439,14.5,73172.3,0.77,0.29,0.41,0,*4A
1494612483.46,43440,14.56,73176.8,0.77,0.29,0.41,0,*44
1494612484.67,43441,14.56,73176.0,0.77,0.33,0.41,0,*4E
1494612485.88,43442,14.56,73174.5,0.77,0.33,0.41,0,*4D
1494612487.11,43443,14.56,73178.8,0.79,0.33,0.33,0,*47
1494612488.35,43444,14.56,73182.0,0.79,0.41,0.33,0,*45
1494612489.58,43445,14.56,73176.5,0.79,0.33,0.33,0,*41
1494612490.82,43446,14.5,73176.0,0.79,0.29,0.29,0,*42
1494612492.07,43447,14.56,73176.5,0.79,0.21,0.21,0,*43
1494612493.28,43448,14.56,73176.5,0.81,0.25,0.25,0,*4B
1494612494.52,43449,14.56,73176.3,0.79,0.17,0.21,0,*48
1494612495.77,43450,14.56,73176.5,0.79,0.21,0.21,0,*45
1494612496.98,43451,14.56,73172.8,0.77,0.21,0.21,0,*4A
1494612498.2,43452,14.56,73176.8,0.77,0.21,0.21,0,*49
1494612499.45,43453,14.56,73174.8,0.79,0.21,0.21,0,*46
1494612500.69,43454,14.56,73176.3,0.79,0.29,0.21,0,*49
1494612501.9,43455,14.5,73172.0,0.77,0.21,0.33,0,*4D
1494612503.11,43456,14.56,73176.5,0.77,0.33,0.29,0,*46
1494612504.32,43457,14.56,73178.3,0.77,0.29,0.33,0,*47
1494612505.53,43458,14.56,73180.8,0.77,0.33,0.33,0,*43
1494612506.74,43459,14.56,73180.3,0.77,0.29,0.29,0,*42
1494612507.95,43460,14.56,73178.0,0.77,0.33,0.29,0,*43
1494612509.16,43461,14.5,73176.0,0.77,0.29,0.33,0,*42
1494612510.37,43462,14.56,73182.3,0.77,0.29,0.33,0,*41
1494612511.6,43463,14.56,73180.5,0.79,0.29,0.33,0,*4E
1494612512.81,43464,14.56,73182.3,0.77,0.29,0.33,0,*47